CAPE
0 0 0 0 0 0 0 0 0 0 0 0 0 0 0 0 0 0 0 0 0 0 0 0 0 0 0 0 0 8 2 0 0 0 196 738 871 1159 1019 1334 1753 2030 2192 1892 1826 1968 1881 1719 1489 1396 1257 1514 916 391 929 1210 1629 1714 1501 1233 1413 1437 1184 1593 1880 1906 1997 1768 1337 1006 641 634 640 514 695 681 542 608 582 379 173 394 441 620 784 736
0 0 0 0 0 0 0 0 0 0 0 0 0 0 0 0 0 0 0 1 0 0 0 0 0 0 0 0 0 0 18 0 3 15 436 617 656 623 1234 1036 818 1202 2262 2069 1949 2057 2154 1704 1689 1599 1476 1447 1005 661 989 1437 1468 1443 1297 1510 1387 1242 1139 1532 1705 1869 1955 1592 988 879 744 535 600 323 536 621 673 664 459 401 460 457 499 564 686 654
0 0 0 0 0 0 0 0 0 0 0 0 0 0 0 0 0 0 0 0 0 0 0 0 0 0 0 0 0 0 70 90 21 77 475 380 420 556 1267 1147 1405 2219 1827 2075 2162 2187 2132 2168 1873 1510 1688 1225 646 875 1025 1471 1371 1482 1440 1403 1299 1172 953 1022 1221 1360 1427 1127 1174 1028 775 641 399 421 393 427 263 195 227 637 612 625 538 397 194 439
0 0 0 0 0 0 0 0 0 0 0 0 0 0 0 0 0 0 0 0 0 0 0 0 0 0 0 0 0 70 355 212 101 93 353 483 496 583 1140 1372 1394 1616 1841 2277 2013 2013 1696 2082 2101 1941 1781 1717 792 645 1119 1276 1453 1647 1448 1342 1033 923 999 949 789 1109 852 1162 1022 1019 997 960 744 717 513 338 338 156 94 510 488 579 688 474 305 246
0 0 0 0 0 0 0 0 0 0 0 0 0 0 0 0 0 0 0 0 0 0 0 0 12 1 0 0 4 98 373 104 228 217 288 568 527 966 1219 1640 1706 1893 2170 2103 2130 1302 1337 1402 1719 1955 2106 1746 938 829 1034 1183 1558 1743 1462 1203 963 979 1003 794 546 506 1068 1615 1397 1305 1271 966 501 334 168 124 49 126 89 13 131 361 512 441 220 182
0 0 0 0 0 0 0 0 0 0 0 0 0 0 0 0 0 0 0 0 0 0 0 0 0 0 0 15 17 152 305 322 557 454 369 540 583 1152 1535 1454 1660 2002 2341 1977 1452 1526 1581 1806 1904 1930 2170 2285 1436 1089 1199 1254 1502 1806 1523 1109 995 1052 1234 828 611 680 1306 1359 1410 1342 861 445 317 208 207 231 70 1 26 9 18 109 193 241 276 148
0 0 0 0 0 0 0 0 0 0 0 0 0 0 0 0 0 0 0 0 35 3 5 0 0 0 0 41 27 299 576 422 705 658 610 552 787 1042 1389 1247 1432 1508 1657 1660 1407 1540 1420 1836 1889 1942 2055 1828 2276 1170 1194 1467 1408 1346 1522 1084 831 904 1196 720 905 1115 1293 1108 1080 915 515 544 497 439 514 399 412 229 3 2 80 63 146 139 278 224
0 0 0 0 0 0 0 0 0 0 0 0 0 0 0 0 0 0 0 8 0 0 8 0 0 0 10 93 30 122 241 100 159 372 580 510 802 754 1229 1035 1137 832 1711 1284 1651 1847 1969 1963 1776 1882 2060 2112 2024 1428 1182 1213 1022 1185 1239 750 1074 679 704 725 954 781 1439 1444 1198 1028 791 782 631 666 494 464 223 26 46 36 0 88 210 81 138 183
0 0 0 0 0 0 0 0 0 0 0 0 0 0 0 0 0 0 0 6 3 0 82 31 0 0 38 159 56 142 36 54 34 242 333 548 886 1171 1089 934 968 1040 1488 1235 1328 1783 2035 2025 1788 1836 2046 1994 1312 1098 971 846 624 746 940 1025 1252 1266 929 942 978 698 698 1110 1524 1441 809 778 626 452 370 148 19 95 156 102 90 98 188 268 180 94
0 0 0 0 0 0 0 0 0 0 0 0 0 0 0 0 0 0 0 0 9 0 30 117 14 0 17 78 117 219 150 62 116 391 509 579 640 580 968 906 926 1075 770 978 1541 1783 2028 2102 2075 2024 2038 1795 1414 1103 861 850 916 839 985 900 942 875 726 1176 1121 871 630 1101 1493 1507 1332 715 271 170 67 23 78 144 214 312 132 36 60 151 186 124
0 0 0 0 0 0 0 0 0 0 0 0 0 0 0 0 0 0 0 21 14 33 45 52 17 0 18 48 300 432 206 241 641 628 413 160 477 1095 749 686 1199 1264 1120 1198 736 1656 2075 2116 1888 1814 1490 1358 1225 813 756 831 949 1138 1090 900 828 867 1102 1342 1230 1200 1348 812 1203 1233 1087 537 327 210 161 133 111 50 89 22 110 177 156 262 205 99
0 0 0 0 0 0 0 0 0 0 0 0 0 0 0 0 0 0 0 0 1 14 64 25 76 25 4 405 66 17 22 246 306 222 273 317 777 507 892 1327 1241 1497 1912 1380 1346 982 1839 1810 1500 1436 1303 1305 1038 1043 1191 979 714 973 1021 1088 1061 946 1049 918 841 1201 1267 1304 1692 1266 909 764 547 336 290 265 247 179 65 148 116 226 326 222 124 12
0 0 0 0 0 0 0 0 0 0 0 0 0 0 0 6 0 0 0 0 0 48 53 69 105 183 10 274 376 151 299 73 116 138 296 592 520 906 1150 1065 1132 840 1403 1409 1320 1111 906 801 633 776 434 492 445 942 1242 1090 988 800 961 1063 1160 1331 1266 1059 894 927 1304 1475 1520 961 819 792 618 362 190 323 272 196 128 81 30 145 185 91 17 0
0 0 0 0 0 0 0 0 6 0 0 0 0 6 4 0 0 0 1 0 28 56 138 132 58 90 115 363 176 83 142 195 242 344 192 140 226 302 533 766 1046 1368 1090 1217 1283 1420 1206 840 675 292 273 625 853 1021 1080 921 850 825 1141 1032 1083 1137 1158 1052 1183 1479 1537 1722 1103 944 824 789 590 392 226 218 204 107 50 5 26 86 52 54 9 0
1 0 0 0 0 0 0 0 13 0 0 0 0 1 55 19 1 0 4 42 30 71 146 92 83 91 15 526 132 526 270 113 182 387 631 760 620 65 194 387 629 1154 1217 1177 1398 1390 1419 1112 974 857 514 588 751 757 594 628 743 994 1209 1237 909 878 880 909 1134 1315 1441 1578 1134 1040 912 864 639 317 203 137 65 47 13 14 50 40 54 42 5 0
4 20 0 0 0 0 0 0 0 4 1 0 0 0 14 50 1 0 86 48 13 0 258 230 117 68 361 295 562 649 409 215 119 190 278 112 357 231 174 476 846 1437 1346 1393 1728 1529 1269 1216 1051 894 722 570 937 996 1028 1187 1250 1321 1308 1194 1014 1048 1182 1202 1265 1289 1300 1188 876 681 740 703 747 282 178 34 11 23 32 35 50 59 16 5 1 0
33 108 20 0 0 0 0 0 0 0 122 95 0 34 57 14 19 5 0 29 90 0 27 215 134 54 48 190 306 653 564 218 103 220 240 708 589 547 552 643 1018 1180 1475 1771 1474 1391 1038 1258 1112 1001 840 630 428 1233 1672 1318 1338 1164 1141 1109 1214 1340 1296 1078 1267 1339 1208 1143 671 989 740 756 781 366 180 19 56 29 35 15 2 2 6 6 1 0
128 116 0 0 0 0 0 0 0 0 0 4 0 47 52 20 78 96 110 7 2 0 0 88 32 26 66 58 21 111 454 597 634 768 863 999 1133 900 789 884 1152 1241 1462 1482 1476 1387 1237 1234 1165 1003 766 573 604 1010 1496 1476 1502 1178 1205 1178 1130 975 1024 915 858 940 1008 868 609 872 1102 992 891 446 109 82 118 91 6 1 0 1 15 3 4 1
5 53 64 0 0 0 0 0 0 0 0 0 137 84 3 109 7 15 0 0 30 1 0 22 102 153 63 263 38 359 663 798 698 871 942 1014 1117 1240 1195 991 854 1074 1231 1188 1180 1231 1137 1090 709 972 741 875 945 1147 1455 1568 1351 1555 1246 1435 1188 901 889 890 904 1077 961 809 621 373 1012 1257 1077 500 88 85 105 98 38 2 0 0 0 5 2 0
35 4 3 2 0 10 0 0 0 0 0 0 0 0 13 58 97 35 12 7 42 93 4 25 87 155 9 410 218 351 454 835 681 665 616 1070 1159 1280 1208 1098 955 1387 1253 972 954 826 846 920 822 819 723 436 740 1104 1071 1098 1085 1127 1203 1116 1167 1015 1027 1004 1042 1108 1055 882 932 550 1292 1268 902 760 197 41 114 104 119 117 34 1 2 1 0 0
27 20 12 22 10 2 0 0 0 0 19 0 0 0 30 96 80 0 135 22 66 22 56 34 143 178 485 791 150 280 689 764 535 778 992 1174 1231 1194 1169 1151 1015 791 900 961 955 782 603 635 864 715 868 1008 834 1242 1165 1090 1095 1074 1034 1047 1142 1010 998 956 969 977 1059 981 1278 1433 1326 1283 1082 987 362 16 49 88 274 221 331 218 26 0 0 4
4 54 26 11 0 0 3 0 0 2 11 62 2 0 7 98 96 30 1 11 114 47 108 61 160 602 540 423 615 744 779 679 627 636 972 1008 1011 1125 1122 1028 896 835 953 895 748 709 658 782 757 920 752 669 791 867 984 918 1127 1288 1273 1070 1044 1069 1104 1199 999 1032 972 1043 1218 1310 1352 1443 1202 1164 605 169 24 120 170 3 4 253 205 62 0 0
275 69 85 0 5 64 0 0 0 0 0 0 34 66 0 45 33 26 0 4 41 2 44 16 19 295 547 472 729 716 636 761 405 450 589 885 1009 1024 978 898 865 766 785 849 873 884 768 650 650 697 657 580 711 835 867 911 786 1108 1426 1387 1205 1171 1057 1102 1228 1188 1277 1093 1180 1160 1206 1369 1018 1162 915 518 219 246 215 1 2 92 395 466 13 0
68 0 7 12 2 8 0 0 0 0 0 0 0 0 28 44 148 0 22 51 1 59 3 40 10 181 419 317 798 935 721 490 498 451 722 909 965 959 947 933 886 900 936 982 1179 986 884 915 915 944 950 838 790 951 887 658 1233 1430 1458 1544 1264 1420 1310 1400 1370 1365 1357 1250 1249 1196 1278 1348 1291 1234 1166 874 433 413 200 74 221 140 439 324 253 51
0 1 2 25 19 15 28 6 0 0 0 0 0 7 0 3 46 122 83 248 66 120 111 31 98 143 715 456 577 788 757 790 929 721 703 796 823 930 971 957 998 1010 894 924 1089 1054 917 921 960 1014 1153 1124 1138 1151 1219 1235 880 1021 1367 1514 1448 1349 1466 1155 1242 1159 1119 1193 1230 1233 1155 1041 1062 1085 1436 1424 854 484 236 61 153 147 18 194 66 118
0 6 0 19 22 8 49 99 0 1 1 0 0 7 0 0 0 68 1 158 55 72 30 134 268 509 447 632 553 376 1048 1338 1110 774 618 708 792 925 970 985 1024 932 950 858 986 851 908 980 941 1080 1001 1128 1155 1210 1310 1359 1577 1517 1424 1339 1364 1373 1246 1099 1089 1055 956 962 1198 1250 1234 1171 1300 1150 1116 1206 1083 668 603 206 47 48 57 136 125 67
76 14 10 2 30 3 0 0 0 0 1 0 4 0 23 0 0 7 39 22 21 74 34 19 308 579 338 614 697 699 1269 1251 1197 1032 596 653 875 957 984 952 853 773 699 754 708 726 598 753 741 789 721 765 953 950 840 924 926 1048 1179 1210 1223 1352 1391 1393 1410 1341 1314 1238 1290 1303 1167 1141 1277 1327 1169 1131 1124 1126 869 681 303 24 0 51 168 139
82 14 22 2 0 0 0 0 0 0 2 0 35 26 0 11 38 133 14 20 132 47 34 155 641 704 583 602 644 846 681 1099 1285 1256 1018 846 905 881 822 814 661 708 685 652 647 648 437 526 722 840 836 854 807 639 670 683 709 792 1141 1139 1163 1179 1312 1261 1400 1434 1288 1413 1385 1330 1327 1366 1180 1184 1286 1234 1200 1178 1118 774 676 452 186 174 128 184
113 0 83 6 0 0 0 0 0 2 0 4 15 9 146 85 63 106 158 411 252 11 21 599 742 673 592 396 560 617 673 276 1134 1063 1000 858 871 752 662 596 584 499 218 335 405 108 282 354 459 558 634 736 870 889 873 902 867 969 786 958 1002 1014 1115 1219 1248 1214 1136 1279 1154 1377 1262 1242 1173 1130 1313 1040 830 947 859 959 1135 1126 875 509 359 245
97 130 181 12 7 0 0 0 0 0 0 0 0 4 63 342 288 313 380 379 405 524 674 701 542 323 215 148 94 290 455 505 420 664 630 564 438 426 518 173 128 112 84 58 118 207 209 145 152 194 237 488 582 768 840 841 910 919 851 862 865 768 901 858 940 892 886 972 1135 1256 1172 1054 1094 1154 1179 1045 1016 855 1000 1026 880 689 791 935 865 655
343 85 45 27 2 0 0 0 0 0 0 0 0 1 21 19 45 72 361 519 589 630 603 359 168 63 7 0 3 51 228 200 384 419 422 382 326 303 266 250 216 102 20 3 1 22 10 15 11 14 86 58 68 248 428 431 405 676 711 642 581 719 652 733 742 803 710 704 778 754 1099 1202 1134 1214 1078 931 1087 974 1025 838 909 920 983 1012 861 597
185 90 51 11 3 8 0 0 0 0 0 0 0 3 1 93 0 0 2 296 246 383 465 243 56 1 4 6 3 42 71 128 205 135 133 179 222 185 156 169 147 69 26 16 4 6 6 8 1 2 3 3 1 3 2 54 46 77 122 126 117 181 627 740 798 779 780 739 808 837 846 821 938 1005 1038 997 929 826 698 662 782 964 991 719 554 358
106 75 37 27 14 6 20 0 0 0 0 7 3 0 0 0 0 0 3 72 185 110 256 38 5 3 7 3 0 0 48 44 120 87 85 90 99 60 41 45 43 62 71 60 8 2 31 52 1 6 53 5 16 6 0 0 0 0 0 0 0 0 62 153 385 586 662 648 688 875 938 836 921 882 898 989 1030 756 951 1027 1010 809 667 690 660 595
87 412 86 117 24 29 5 24 22 14 13 11 154 82 1 0 0 1 0 0 0 16 50 29 29 1 4 0 0 0 23 44 32 0 10 22 4 0 30 53 38 47 63 96 14 14 12 2 10 19 17 4 0 0 0 0 0 0 0 0 0 0 0 0 0 0 3 58 104 194 302 374 594 806 1000 967 984 962 1013 1191 1348 1317 1055 1172 808 727
147 150 28 255 34 37 72 44 50 17 12 0 0 6 3 0 0 0 0 0 0 0 1 0 0 7 0 0 0 9 66 133 110 80 34 5 3 12 30 25 48 80 152 120 102 69 30 6 30 44 46 21 0 0 0 0 4 50 44 8 0 0 0 0 0 0 0 0 0 0 0 0 0 41 107 356 685 865 1212 1261 1404 1409 1431 1295 1195 866
64 32 47 11 22 21 22 56 64 31 2 0 13 8 3 2 0 0 0 0 0 0 0 0 0 0 0 0 0 0 0 64 103 198 221 198 111 100 81 86 35 16 46 50 40 56 62 62 65 74 67 30 15 0 0 24 22 44 23 0 0 0 0 0 0 0 0 0 0 0 0 0 0 0 0 0 22 143 262 572 882 1294 1364 979 878 933
66 130 12 14 15 7 13 42 20 30 20 6 4 4 2 0 6 26 0 0 0 0 0 0 0 0 0 0 0 0 0 0 5 1 18 1 0 23 46 58 33 21 28 2 8 18 0 0 15 39 12 1 5 25 42 26 3 0 0 0 0 0 0 0 0 0 0 0 0 0 0 0 0 0 0 0 0 0 0 79 285 353 383 437 471 531
50 27 123 54 42 16 111 128 8 0 24 5 0 0 0 0 0 0 0 0 0 0 0 0 0 0 0 0 0 0 0 0 0 0 0 0 0 0 0 0 0 0 0 0 0 0 0 0 0 0 0 0 2 0 1 0 0 0 0 0 0 0 0 0 0 0 0 0 0 0 0 0 0 0 0 0 0 0 0 0 34 98 215 250 294 359
4 69 3 9 17 84 36 18 26 106 12 0 5 1 0 0 0 0 2 1 0 0 2 0 0 0 0 0 0 0 0 0 0 0 0 1 0 0 0 0 0 0 1 2 1 0 0 0 0 0 0 0 0 0 0 0 0 0 0 0 0 0 0 0 0 0 0 0 0 0 0 0 0 0 0 2 9 26 38 25 24 36 138 127 142 164
50 43 34 5 3 0 51 10 73 89 2 0 1 0 0 0 0 0 0 2 0 0 1 0 3 6 4 6 0 3 0 3 0 0 0 0 0 0 0 0 0 0 0 0 0 0 1 5 1 0 0 0 0 0 0 0 0 0 0 0 1 0 0 0 0 0 0 0 0 0 0 0 0 0 0 4 17 31 44 45 53 80 98 75 92 116
7 11 0 42 109 73 7 67 12 3 0 0 0 0 0 0 0 0 22 0 0 0 0 1 2 3 2 1 0 0 0 0 0 0 0 0 0 0 0 0 0 0 0 0 0 0 0 0 0 0 0 0 0 0 0 0 0 0 0 0 0 0 0 0 0 0 0 0 0 0 0 0 0 0 0 0 0 1 11 38 40 78 49 36 24 42
0 0 0 0 2 13 22 1 5 21 2 0 0 0 2 0 0 0 0 0 0 0 0 2 0 1 4 0 0 0 0 0 0 0 0 0 0 0 0 0 0 0 0 0 0 0 0 0 0 0 0 0 0 0 0 0 0 0 0 0 0 0 0 0 0 0 0 0 0 0 0 0 0 0 0 0 0 0 0 12 55 66 130 78 41 18
2 0 0 6 1 0 0 2 27 14 0 0 0 0 0 0 0 0 0 2 2 3 2 2 3 1 1 0 0 0 0 0 0 0 0 0 0 0 0 0 0 0 0 0 0 0 0 0 0 0 0 0 0 0 0 0 0 0 0 0 0 0 0 0 0 0 0 0 0 0 0 0 0 0 0 0 0 0 0 4 18 68 79 105 134 74
0 0 6 0 0 5 1 0 0 0 0 1 4 0 0 0 0 3 0 2 4 6 4 0 0 1 3 2 1 0 0 0 0 0 0 0 0 0 0 0 0 0 0 0 0 0 0 0 0 0 0 0 0 0 0 0 0 0 0 0 0 0 0 0 0 0 0 0 0 0 0 0 0 0 0 0 0 0 0 0 17 31 83 144 124 119
0 0 0 2 0 0 4 0 2 5 0 6 4 1 0 0 2 2 0 0 2 4 0 5 2 2 0 1 0 0 0 0 0 0 0 0 0 0 0 0 0 0 0 0 0 0 0 0 0 0 0 0 0 0 0 0 0 0 0 0 0 0 0 0 0 0 0 0 0 0 0 0 0 0 0 0 0 0 0 0 0 9 46 84 148 108
0 0 0 0 0 0 1 0 0 0 0 2 0 0 1 0 3 5 5 4 1 0 0 0 2 0 0 0 0 0 0 0 0 0 0 0 0 0 0 0 0 0 0 0 0 0 0 0 0 0 0 0 0 0 0 0 0 0 0 0 0 0 0 0 0 0 0 0 0 0 0 0 0 0 0 0 0 0 0 0 0 0 2 11 70 133
0 0 0 0 6 0 11 1 0 2 0 1 2 1 1 1 0 0 0 0 0 0 0 0 0 0 0 0 0 0 0 0 0 0 0 0 0 0 0 0 0 0 0 0 0 0 0 0 0 0 0 0 0 0 0 0 0 0 0 0 0 0 0 0 0 0 0 0 0 0 0 0 0 0 0 0 0 0 0 0 0 0 0 2 16 66
2 0 0 0 6 0 2 5 0 1 4 6 0 4 2 0 0 0 0 0 0 0 0 0 0 0 0 0 0 0 0 0 0 0 0 0 0 0 0 0 0 0 0 0 0 0 0 0 0 1 2 2 2 2 2 2 2 1 0 0 1 0 1 1 1 1 0 0 0 0 0 0 0 0 0 0 0 0 0 0 0 0 0 0 0 17
0 0 0 1 5 25 3 2 3 1 2 2 0 0 4 0 0 0 0 0 0 0 0 0 0 0 0 0 0 0 0 0 0 0 0 0 0 0 0 0 0 0 0 0 0 0 1 2 1 2 4 4 3 4 0 0 2 0 0 0 4 1 1 6 0 0 4 4 2 2 0 0 0 0 0 0 0 0 0 0 0 0 0 2 5 11
0 0 0 0 5 2 2 2 2 0 1 0 4 1 0 2 1 3 3 2 0 0 1 1 3 1 0 0 0 0 0 0 0 0 0 0 0 0 0 0 0 0 0 0 3 2 3 5 5 1 2 6 2 0 0 4 2 0 1 0 0 1 0 1 3 0 0 3 2 5 4 2 0 0 1 0 0 0 0 0 0 0 0 21 16 0
0 0 0 0 0 0 2 1 0 0 0 0 0 4 0 5 4 4 3 5 8 4 4 7 10 11 10 4 0 1 1 0 0 0 0 0 0 0 0 0 0 0 2 2 4 3 3 4 2 0 2 0 0 1 2 6 6 2 2 0 0 0 0 1 0 0 0 1 1 0 0 0 3 4 1 0 0 2 2 2 0 0 0 0 0 0
Wind_Speed
nan nan nan nan nan nan nan nan nan nan nan nan nan nan nan nan nan nan nan nan nan nan nan nan nan nan nan nan nan nan nan nan nan nan 18 17 17 18 24 30 27 23 24 23 19 16 18 20 21 22 24 24 35 33 23 19 22 25 21 18 17 15 15 15 13 12 13 12 12 13 13 15 14 16 17 17 18 18 19 19 20 20 19 18 17 16
nan nan nan nan nan nan nan nan nan nan nan nan nan nan nan nan nan nan nan nan nan nan nan nan nan nan nan nan nan nan nan nan nan nan 18 17 19 20 23 30 31 23 26 23 20 17 21 23 24 25 24 27 34 30 22 20 25 24 21 20 19 18 16 14 13 14 14 13 15 13 13 13 14 16 15 17 17 18 18 20 21 20 20 19 17 16
nan nan nan nan nan nan nan nan nan nan nan nan nan nan nan nan nan nan nan nan nan nan nan nan nan nan nan nan nan nan nan nan nan nan 19 16 19 22 26 33 30 28 25 23 22 20 26 26 25 24 24 27 34 30 20 20 25 25 22 20 20 20 17 16 19 21 19 16 17 12 13 13 15 15 17 17 18 18 19 20 21 21 20 18 17 16
nan nan nan nan nan nan nan nan nan nan nan nan nan nan nan nan nan nan nan nan nan nan nan nan nan nan nan nan nan nan 24 20 21 nan 19 18 19 23 26 34 29 26 26 24 23 25 29 21 22 21 22 27 35 28 20 21 23 23 21 19 21 21 18 19 22 29 26 16 14 12 15 15 16 18 19 19 18 20 nan 20 20 21 18 17 17 16
nan nan nan nan nan nan nan nan nan nan nan nan nan nan nan nan nan nan nan nan nan nan nan nan nan nan nan nan nan nan 23 20 21 18 19 19 19 24 29 31 30 27 26 25 27 32 24 15 17 19 19 25 31 28 22 23 22 18 18 20 23 20 21 21 23 22 11 14 14 16 16 18 18 16 16 17 nan 18 nan nan 19 19 17 17 18 15
nan nan nan nan nan nan nan nan nan nan nan nan nan nan nan nan nan nan nan nan nan nan nan nan nan nan nan nan nan 26 26 21 23 19 18 19 19 26 27 30 29 25 22 22 29 28 17 17 18 19 19 20 26 27 21 24 22 19 20 22 24 25 24 25 21 12 12 15 14 13 13 14 14 15 15 16 nan nan nan nan nan 19 17 17 16 17
nan nan nan nan nan nan nan nan nan nan nan nan nan nan nan nan nan nan nan nan nan nan nan nan nan nan nan nan nan 23 24 20 22 17 16 17 18 22 25 26 24 20 19 26 28 18 17 17 18 18 16 17 23 29 23 21 25 21 23 22 17 27 28 27 25 14 14 14 14 14 13 13 14 16 16 17 17 18 nan nan nan nan 18 18 18 17
nan nan nan nan nan nan nan nan nan nan nan nan nan nan nan nan nan nan nan nan nan nan nan nan nan nan nan nan nan 20 20 16 15 14 14 14 15 19 22 20 18 18 17 29 17 14 15 16 16 15 15 18 25 31 29 23 24 23 16 18 24 22 17 20 23 17 14 16 15 13 14 14 15 17 18 18 18 nan nan nan nan nan 18 nan 18 17
nan nan nan nan nan nan nan nan nan nan nan nan nan nan nan nan nan nan nan nan nan nan nan nan nan nan nan 17 nan 17 nan nan nan 13 13 13 16 20 25 18 15 15 17 28 14 9 8 11 13 14 17 24 32 34 32 26 23 23 27 25 19 19 25 29 26 20 14 14 16 15 15 16 18 19 18 18 nan nan 19 20 nan nan 20 19 19 nan
nan nan nan nan nan nan nan nan nan nan nan nan nan nan nan nan nan nan nan nan nan nan nan 7 nan nan nan nan 17 15 9 nan 11 13 16 14 21 15 21 17 12 14 19 20 16 8 3 7 15 18 23 30 34 37 33 28 27 27 24 23 25 27 27 24 23 17 16 14 14 14 17 19 19 19 nan nan nan 20 20 21 21 nan nan 20 20 19
nan nan nan nan nan nan nan nan nan nan nan nan nan nan nan nan nan nan nan nan nan nan nan nan nan nan nan nan 24 16 12 14 19 19 16 19 18 17 18 13 14 11 13 21 21 11 8 11 25 27 30 31 34 34 35 33 28 21 23 28 30 27 28 29 25 22 19 17 13 16 19 19 20 20 19 20 20 nan nan nan 22 22 22 22 22 nan
nan nan nan nan nan nan nan nan nan nan nan nan nan nan nan nan nan nan nan nan nan nan nan nan nan nan nan 18 nan nan nan 15 18 13 13 21 20 16 14 14 11 10 14 16 19 20 16 27 37 35 32 34 35 33 29 27 26 26 28 26 24 24 25 24 24 20 19 18 17 22 17 17 19 19 19 19 20 21 nan 23 24 24 25 25 24 nan
nan nan nan nan nan nan nan nan nan nan nan nan nan nan nan nan nan nan nan nan nan nan nan nan 7 9 nan 24 26 30 29 nan 21 16 16 21 18 17 12 14 12 10 11 14 16 18 28 33 35 34 33 28 23 24 23 24 27 32 35 32 30 28 25 24 27 26 18 18 20 24 18 17 17 17 19 20 22 22 24 nan nan 26 27 nan nan nan
nan nan nan nan nan nan nan nan nan nan nan nan nan nan nan nan nan nan nan nan nan nan 17 11 nan nan 16 28 35 nan 19 17 24 21 12 12 9 12 13 10 11 13 14 15 17 18 33 43 39 31 25 20 21 23 25 25 28 28 30 30 31 30 27 28 27 30 27 21 20 23 21 19 16 18 19 21 23 23 nan nan nan nan nan nan nan nan
nan nan nan nan nan nan nan nan nan nan nan nan nan nan nan nan nan nan nan nan nan nan 13 nan nan nan nan 28 32 25 21 18 17 14 16 15 18 nan 16 14 14 20 16 18 17 25 41 41 40 34 29 27 26 29 29 28 28 30 31 32 34 33 33 32 30 30 28 24 23 25 23 19 18 20 21 23 nan nan nan nan nan nan nan nan nan nan
nan nan nan nan nan nan nan nan nan nan nan nan nan nan nan nan nan nan nan nan nan nan 11 15 17 nan 20 28 28 27 29 28 19 14 13 13 14 22 23 24 21 23 19 19 25 37 42 41 40 40 38 33 29 28 27 30 30 32 34 32 32 35 36 36 33 28 28 27 25 27 24 22 21 22 23 nan nan nan nan nan nan nan nan nan nan nan
nan 9 nan nan nan nan nan nan nan nan 11 nan nan nan nan nan nan nan nan nan nan nan nan 18 14 nan nan 30 28 26 24 25 25 23 18 21 23 30 32 31 26 28 26 29 32 40 40 36 36 37 38 34 28 26 25 27 27 30 33 32 31 33 36 38 33 30 28 23 23 24 26 26 26 26 25 nan nan nan nan nan nan nan nan nan nan nan
19 12 nan nan nan nan nan nan nan nan nan nan nan nan nan nan nan nan 14 nan nan nan nan nan nan nan nan nan nan 21 17 24 29 31 32 32 32 34 34 35 35 33 33 35 37 42 39 35 35 36 37 37 34 29 27 30 28 28 30 32 33 33 37 36 33 30 26 23 24 25 30 30 28 25 24 nan 19 nan nan nan nan nan nan nan nan nan
nan nan nan nan nan nan nan nan nan nan nan nan 17 nan nan 17 nan nan nan nan nan nan nan nan 16 12 nan 22 nan 24 23 28 30 32 33 33 33 35 35 38 40 40 39 38 39 41 40 38 35 39 41 40 38 33 31 32 32 32 29 29 32 33 34 34 29 28 27 28 30 29 28 28 23 21 nan nan 14 nan nan nan nan nan nan nan nan nan
nan nan nan nan nan nan nan nan nan nan nan nan nan nan nan nan nan nan nan nan nan nan nan nan nan 16 nan 26 25 30 26 29 35 33 34 32 35 36 37 38 39 38 36 38 38 38 38 39 40 43 45 42 40 41 40 39 37 38 35 33 33 32 33 32 30 28 29 30 31 28 23 21 17 17 17 nan 15 14 15 16 nan nan nan nan nan nan
nan nan nan nan nan nan nan nan nan nan nan nan nan nan nan nan nan nan 17 nan nan nan nan nan 11 23 27 30 36 32 29 29 30 32 34 35 36 38 40 39 39 38 37 38 39 39 40 39 41 43 43 42 43 43 44 43 42 40 39 40 40 36 34 35 34 32 31 29 28 24 21 19 18 16 18 nan nan nan 17 18 19 19 nan nan nan nan
nan nan nan nan nan nan nan nan nan nan nan nan nan nan nan nan nan nan nan nan 12 nan 12 nan 17 29 29 27 33 32 30 29 28 31 34 36 39 40 40 41 41 41 41 40 39 37 37 39 42 43 44 44 43 42 42 41 41 39 42 42 42 40 38 39 38 35 28 21 21 21 21 22 20 17 18 19 nan 18 20 nan nan 19 17 nan nan nan
25 nan nan nan nan nan nan nan nan nan nan nan nan nan nan nan nan nan nan nan nan nan nan nan nan 24 26 24 28 30 27 31 32 32 33 35 38 39 40 41 41 41 40 40 40 39 39 40 41 43 43 44 42 40 40 40 39 37 38 41 38 36 37 38 40 36 26 20 20 20 22 22 20 19 18 18 16 17 20 nan nan nan 16 15 nan nan
nan nan nan nan nan nan nan nan nan nan nan nan nan nan nan nan 14 nan nan nan nan nan nan nan nan 28 25 24 26 27 33 29 29 28 32 34 35 36 38 38 39 39 38 38 38 37 39 39 40 41 41 40 38 36 35 36 37 37 35 34 35 34 35 33 34 33 28 24 21 21 21 20 19 18 17 16 16 17 19 nan 19 18 17 16 17 nan
nan nan nan nan nan nan nan nan nan nan nan nan nan nan nan nan nan 18 nan 19 nan 15 13 nan nan 27 28 24 23 25 26 27 30 32 32 33 33 34 35 35 35 36 35 36 36 37 38 38 39 39 37 35 34 32 30 31 34 33 32 31 32 31 29 27 26 24 23 20 19 18 18 17 17 17 16 16 15 16 19 nan 19 19 nan 18 nan 19
nan nan nan nan nan nan nan nan nan nan nan nan nan nan nan nan nan nan nan 24 nan nan nan 16 27 29 29 25 25 27 24 30 30 29 29 30 31 32 31 32 32 33 33 33 33 33 34 34 35 35 34 33 31 30 29 29 31 31 32 32 31 30 29 26 23 21 20 19 19 18 16 16 16 16 16 16 15 16 17 19 nan nan nan 19 20 nan
nan nan nan nan nan nan nan nan nan nan nan nan nan nan nan nan nan nan nan nan nan nan nan nan 30 32 31 28 27 29 29 29 28 25 25 27 28 29 29 28 28 29 29 30 30 30 30 29 31 31 31 31 31 30 30 30 31 32 30 29 28 28 26 24 22 20 20 19 19 19 17 18 19 18 19 19 18 18 18 18 18 nan nan nan 19 20
nan nan nan nan nan nan nan nan nan nan nan nan nan nan nan nan nan 24 nan nan 28 nan nan 32 41 39 35 32 28 27 30 30 27 24 24 25 26 26 27 28 29 30 29 29 29 29 30 31 31 30 30 30 30 31 31 31 30 29 27 27 27 26 23 21 20 20 20 20 19 19 18 19 20 22 22 21 21 20 19 19 18 17 19 21 20 22
22 nan nan nan nan nan nan nan nan nan nan nan nan nan 26 nan nan 24 29 29 29 nan nan 37 40 40 35 34 35 35 31 27 22 25 24 25 26 26 28 29 30 32 33 34 33 32 34 33 31 32 32 31 30 30 30 29 29 29 28 26 25 24 23 21 21 22 22 21 20 20 20 22 24 19 22 22 20 20 21 21 22 22 22 22 23 24
nan 22 25 nan nan nan nan nan nan nan nan nan nan nan nan 37 37 35 36 36 33 40 44 42 45 42 35 33 nan 31 30 29 29 26 25 25 27 29 31 34 34 35 nan nan 35 36 36 35 34 34 33 32 32 31 30 29 30 29 29 29 29 28 27 26 26 26 25 25 26 26 25 25 25 23 22 22 22 23 24 25 25 23 25 25 28 29
20 nan nan nan nan nan nan nan nan nan nan nan nan nan nan nan nan nan 39 42 45 46 46 50 50 nan nan nan nan nan 26 28 29 31 32 31 32 34 35 37 39 38 nan nan nan nan nan nan nan nan nan nan nan 33 32 33 31 31 32 32 32 32 32 31 30 30 29 30 29 29 29 29 29 28 28 28 26 28 30 27 30 28 28 30 32 34
21 nan nan nan nan nan nan nan nan nan nan nan nan nan nan nan nan nan nan 38 38 39 41 46 nan nan nan nan nan nan nan 34 37 36 34 33 34 35 37 38 39 nan nan nan nan nan nan nan nan nan nan nan nan nan nan nan nan nan 33 32 33 35 35 33 34 33 33 32 32 32 33 33 33 33 33 32 32 30 31 31 33 33 33 35 37 37
24 nan nan nan nan nan nan nan nan nan nan nan nan nan nan nan nan nan nan nan 45 38 36 nan nan nan nan nan nan nan nan nan 40 nan nan nan nan nan nan nan nan nan nan nan nan nan nan nan nan nan nan nan nan nan nan nan nan nan nan nan nan nan nan 37 38 38 37 36 37 37 36 36 36 37 37 36 35 35 35 34 34 38 36 37 40 40
nan 22 nan 21 nan nan nan nan nan nan nan nan 31 nan nan nan nan nan nan nan nan nan nan nan nan nan nan nan nan nan nan nan nan nan nan nan nan nan nan nan nan nan nan nan nan nan nan nan nan nan nan nan nan nan nan nan nan nan nan nan nan nan nan nan nan nan nan nan 42 42 40 39 40 40 40 39 39 39 38 38 37 38 40 42 42 42
27 24 nan 28 nan nan nan nan nan nan nan nan nan nan nan nan nan nan nan nan nan nan nan nan nan nan nan nan nan nan nan 51 51 nan nan nan nan nan nan nan nan nan 49 49 50 nan nan nan nan nan nan nan nan nan nan nan nan nan nan nan nan nan nan nan nan nan nan nan nan nan nan nan nan nan 43 42 42 42 40 40 41 42 42 43 44 45
nan nan nan nan nan nan nan nan nan nan nan nan nan nan nan nan nan nan nan nan nan nan nan nan nan nan nan nan nan nan nan nan 53 50 50 49 50 48 nan nan nan nan nan nan nan nan nan nan nan nan nan nan nan nan nan nan nan nan nan nan nan nan nan nan nan nan nan nan nan nan nan nan nan nan nan nan nan 43 42 43 42 41 41 40 41 43
nan 25 nan nan nan nan nan nan nan nan nan nan nan nan nan nan nan nan nan nan nan nan nan nan nan nan nan nan nan nan nan nan nan nan nan nan nan nan nan nan nan nan nan nan nan nan nan nan nan nan nan nan nan nan nan nan nan nan nan nan nan nan nan nan nan nan nan nan nan nan nan nan nan nan nan nan nan nan nan nan 42 41 41 39 39 40
nan nan 23 nan nan nan 22 23 nan nan nan nan nan nan nan nan nan nan nan nan nan nan nan nan nan nan nan nan nan nan nan nan nan nan nan nan nan nan nan nan nan nan nan nan nan nan nan nan nan nan nan nan nan nan nan nan nan nan nan nan nan nan nan nan nan nan nan nan nan nan nan nan nan nan nan nan nan nan nan nan nan nan 42 41 41 41
nan nan nan nan nan nan nan nan nan 23 nan nan nan nan nan nan nan nan nan nan nan nan nan nan nan nan nan nan nan nan nan nan nan nan nan nan nan nan nan nan nan nan nan nan nan nan nan nan nan nan nan nan nan nan nan nan nan nan nan nan nan nan nan nan nan nan nan nan nan nan nan nan nan nan nan nan nan nan nan nan nan nan 45 44 45 46
nan nan nan nan nan nan nan nan nan nan nan nan nan nan nan nan nan nan nan nan nan nan nan nan nan nan nan nan nan nan nan nan nan nan nan nan nan nan nan nan nan nan nan nan nan nan nan nan nan nan nan nan nan nan nan nan nan nan nan nan nan nan nan nan nan nan nan nan nan nan nan nan nan nan nan nan nan nan nan nan nan nan nan nan nan 50
nan nan nan nan 24 nan nan nan nan nan nan nan nan nan nan nan nan nan nan nan nan nan nan nan nan nan nan nan nan nan nan nan nan nan nan nan nan nan nan nan nan nan nan nan nan nan nan nan nan nan nan nan nan nan nan nan nan nan nan nan nan nan nan nan nan nan nan nan nan nan nan nan nan nan nan nan nan nan nan nan nan nan nan nan nan nan
nan nan nan nan nan nan nan nan nan nan nan nan nan nan nan nan nan nan nan nan nan nan nan nan nan nan nan nan nan nan nan nan nan nan nan nan nan nan nan nan nan nan nan nan nan nan nan nan nan nan nan nan nan nan nan nan nan nan nan nan nan nan nan nan nan nan nan nan nan nan nan nan nan nan nan nan nan nan nan nan nan nan 55 nan nan nan
nan nan nan nan nan nan nan nan nan nan nan nan nan nan nan nan nan nan nan nan nan nan nan nan nan nan nan nan nan nan nan nan nan nan nan nan nan nan nan nan nan nan nan nan nan nan nan nan nan nan nan nan nan nan nan nan nan nan nan nan nan nan nan nan nan nan nan nan nan nan nan nan nan nan nan nan nan nan nan nan nan nan nan 56 54 nan
nan nan nan nan nan nan nan nan nan nan nan nan nan nan nan nan nan nan nan nan nan nan nan nan nan nan nan nan nan nan nan nan nan nan nan nan nan nan nan nan nan nan nan nan nan nan nan nan nan nan nan nan nan nan nan nan nan nan nan nan nan nan nan nan nan nan nan nan nan nan nan nan nan nan nan nan nan nan nan nan nan nan nan 56 56 55
nan nan nan nan nan nan nan nan nan nan nan nan nan nan nan nan nan nan nan nan nan nan nan nan nan nan nan nan nan nan nan nan nan nan nan nan nan nan nan nan nan nan nan nan nan nan nan nan nan nan nan nan nan nan nan nan nan nan nan nan nan nan nan nan nan nan nan nan nan nan nan nan nan nan nan nan nan nan nan nan nan nan nan nan 56 55
nan nan nan nan nan nan nan nan nan nan nan nan nan nan nan nan nan nan nan nan nan nan nan nan nan nan nan nan nan nan nan nan nan nan nan nan nan nan nan nan nan nan nan nan nan nan nan nan nan nan nan nan nan nan nan nan nan nan nan nan nan nan nan nan nan nan nan nan nan nan nan nan nan nan nan nan nan nan nan nan nan nan nan nan nan 55
nan nan nan nan nan nan nan nan nan nan nan nan nan nan nan nan nan nan nan nan nan nan nan nan nan nan nan nan nan nan nan nan nan nan nan nan nan nan nan nan nan nan nan nan nan nan nan nan nan nan nan nan nan nan nan nan nan nan nan nan nan nan nan nan nan nan nan nan nan nan nan nan nan nan nan nan nan nan nan nan nan nan nan nan nan nan
nan nan nan nan nan nan nan nan nan nan nan nan nan nan nan nan nan nan nan nan nan nan nan nan nan nan nan nan nan nan nan nan nan nan nan nan nan nan nan nan nan nan nan nan nan nan nan nan nan nan nan nan nan nan nan nan nan nan nan nan nan nan nan nan nan nan nan nan nan nan nan nan nan nan nan nan nan nan nan nan nan nan nan nan nan nan
nan nan nan nan nan nan nan nan nan nan nan nan nan nan nan nan nan nan nan nan nan nan nan nan nan nan nan nan nan nan nan nan nan nan nan nan nan nan nan nan nan nan nan nan nan nan nan nan nan nan nan nan nan nan nan nan nan nan nan nan nan nan nan nan nan nan nan nan nan nan nan nan nan nan nan nan nan nan nan nan nan nan nan nan nan nan
nan nan nan nan nan nan nan nan nan nan nan nan nan nan nan nan nan nan nan nan nan nan nan nan nan nan nan nan nan nan nan nan nan nan nan nan nan nan nan nan nan nan nan nan nan nan nan nan nan nan nan nan nan nan nan nan nan nan nan nan nan nan nan nan nan nan nan nan nan nan nan nan nan nan nan nan nan nan nan nan nan nan nan nan nan nan
nan nan nan nan nan nan nan nan nan nan nan nan nan nan nan nan nan nan nan nan nan nan nan nan nan nan nan nan nan nan nan nan nan nan nan nan nan nan nan nan nan nan nan nan nan nan nan nan nan nan nan nan nan nan nan nan nan nan nan nan nan nan nan nan nan nan nan nan nan nan nan nan nan nan nan nan nan nan nan nan nan nan nan nan nan nan
Wind_Direction
nan nan nan nan nan nan nan nan nan nan nan nan nan nan nan nan nan nan nan nan nan nan nan nan nan nan nan nan nan nan nan nan nan nan 260 263 265 263 272 274 274 276 278 284 288 291 291 288 285 282 285 284 272 278 286 286 296 297 292 288 277 269 270 263 253 233 228 230 234 237 243 249 255 260 266 268 269 268 266 269 274 274 273 274 274 276
nan nan nan nan nan nan nan nan nan nan nan nan nan nan nan nan nan nan nan nan nan nan nan nan nan nan nan nan nan nan nan nan nan nan 264 265 266 265 269 274 274 274 268 282 280 284 283 279 279 282 285 290 280 286 299 296 295 295 290 283 273 269 269 265 254 226 215 228 235 240 252 257 264 269 273 271 267 265 267 267 267 269 271 273 277 277
nan nan nan nan nan nan nan nan nan nan nan nan nan nan nan nan nan nan nan nan nan nan nan nan nan nan nan nan nan nan nan nan nan nan 263 262 266 264 267 271 269 271 273 284 280 279 275 277 281 285 291 290 285 293 306 298 290 287 286 279 272 268 258 246 244 216 206 224 230 240 250 258 264 264 264 266 264 268 268 267 269 269 272 276 276 279
nan nan nan nan nan nan nan nan nan nan nan nan nan nan nan nan nan nan nan nan nan nan nan nan nan nan nan nan nan nan 266 254 257 nan 262 259 262 266 271 273 275 277 284 287 280 273 260 269 283 287 294 294 286 298 298 290 284 280 278 277 268 259 244 247 240 212 189 217 237 235 248 248 250 255 254 259 262 262 nan 271 271 271 272 273 279 280
nan nan nan nan nan nan nan nan nan nan nan nan nan nan nan nan nan nan nan nan nan nan nan nan nan nan nan nan nan nan 265 261 261 263 265 265 261 261 265 273 278 281 281 277 271 263 268 286 294 299 300 296 294 295 296 281 278 266 273 264 263 245 242 245 229 212 186 241 254 247 246 247 250 257 262 262 nan 266 nan nan 270 271 277 282 279 275
nan nan nan nan nan nan nan nan nan nan nan nan nan nan nan nan nan nan nan nan nan nan nan nan nan nan nan nan nan 265 264 260 259 257 264 267 266 265 267 269 270 268 264 268 266 269 290 301 300 309 313 302 295 297 289 275 275 265 254 251 242 228 232 226 209 209 241 258 262 265 266 266 265 266 267 267 nan nan nan nan nan 277 277 276 283 284
nan nan nan nan nan nan nan nan nan nan nan nan nan nan nan nan nan nan nan nan nan nan nan nan nan nan nan nan nan 268 268 268 260 257 263 265 267 267 263 264 268 261 258 249 260 286 301 307 312 317 312 302 288 285 281 265 263 250 243 240 229 223 211 202 193 222 264 270 269 274 271 270 268 268 265 267 269 267 nan nan nan nan 278 284 283 282
nan nan nan nan nan nan nan nan nan nan nan nan nan nan nan nan nan nan nan nan nan nan nan nan nan nan nan nan nan 273 273 283 275 264 261 260 259 264 262 266 258 257 253 254 266 282 300 301 318 311 296 283 272 269 265 254 248 255 251 254 237 243 245 232 214 210 238 264 271 274 272 268 268 267 270 273 269 nan nan nan nan nan 285 nan 287 291
nan nan nan nan nan nan nan nan nan nan nan nan nan nan nan nan nan nan nan nan nan nan nan nan nan nan nan 244 nan 275 nan nan nan 272 263 252 251 254 260 245 240 239 255 264 262 273 295 306 302 289 282 270 264 258 256 254 250 242 239 250 265 258 258 251 248 238 204 255 270 268 267 269 262 269 272 273 nan nan 281 285 nan nan 285 286 287 nan
nan nan nan nan nan nan nan nan nan nan nan nan nan nan nan nan nan nan nan nan nan nan nan 224 nan nan nan nan 269 271 255 nan 270 270 267 255 248 245 250 247 240 238 247 264 283 292 310 285 274 270 265 257 255 255 262 268 257 239 238 255 252 248 249 248 250 237 246 221 257 253 259 263 267 267 nan nan nan 283 286 286 287 nan nan 294 293 290
nan nan nan nan nan nan nan nan nan nan nan nan nan nan nan nan nan nan nan nan nan nan nan nan nan nan nan nan 272 258 236 239 249 242 249 262 253 232 250 247 238 263 289 291 300 315 303 268 258 250 245 250 254 259 266 268 256 243 248 249 253 254 254 244 232 248 249 230 243 256 255 263 269 270 273 278 284 nan nan nan 294 296 296 296 294 nan
nan nan nan nan nan nan nan nan nan nan nan nan nan nan nan nan nan nan nan nan nan nan nan nan nan nan nan 269 nan nan nan 247 256 254 251 251 243 255 237 234 247 252 262 266 286 295 293 259 245 245 247 257 259 258 259 260 266 269 276 277 278 280 280 280 274 259 256 258 262 264 260 263 268 275 278 285 288 290 nan 294 294 295 296 296 297 nan
nan nan nan nan nan nan nan nan nan nan nan nan nan nan nan nan nan nan nan nan nan nan nan nan 261 222 nan 224 217 256 249 nan 257 263 238 231 252 258 227 220 239 259 258 260 265 270 271 265 265 267 272 271 271 264 256 259 271 284 289 290 291 293 292 286 283 283 272 269 277 275 270 268 271 279 286 287 290 291 292 nan nan 298 297 nan nan nan
nan nan nan nan nan nan nan nan nan nan nan nan nan nan nan nan nan nan nan nan nan nan 233 202 nan nan 210 242 244 nan 249 246 227 238 228 249 276 276 249 241 246 258 249 251 248 248 251 261 272 274 275 268 275 274 270 274 281 287 293 297 289 287 289 286 284 279 276 274 280 277 272 271 273 282 287 288 288 289 nan nan nan nan nan nan nan nan
nan nan nan nan nan nan nan nan nan nan nan nan nan nan nan nan nan nan nan nan nan nan 268 nan nan nan nan 240 250 267 268 251 236 222 227 228 252 nan 275 278 279 258 251 243 248 246 255 270 277 283 290 288 293 298 300 299 299 298 298 296 296 296 296 295 291 282 277 273 276 273 267 268 275 282 286 284 nan nan nan nan nan nan nan nan nan nan
nan nan nan nan nan nan nan nan nan nan nan nan nan nan nan nan nan nan nan nan nan nan 245 255 236 nan 217 239 248 256 265 270 263 237 234 258 272 279 269 273 267 260 252 252 250 251 257 262 270 277 283 285 292 301 307 308 305 301 298 297 298 299 298 293 289 283 278 274 273 271 262 267 282 288 285 nan nan nan nan nan nan nan nan nan nan nan
nan 224 nan nan nan nan nan nan nan nan 180 nan nan nan nan nan nan nan nan nan nan nan nan 242 252 nan nan 242 235 238 248 266 274 278 270 258 256 256 265 271 270 264 260 256 255 258 261 265 268 277 279 279 283 295 295 294 292 293 291 289 289 291 291 287 282 279 276 271 276 275 271 274 284 290 286 nan nan nan nan nan nan nan nan nan nan nan
212 213 nan nan nan nan nan nan nan nan nan nan nan nan nan nan nan nan 214 nan nan nan nan nan nan nan nan nan nan 269 256 250 250 250 244 238 240 248 255 263 268 268 264 263 268 272 276 276 277 276 275 277 282 289 286 286 286 285 282 282 282 287 292 287 278 275 274 271 280 284 280 276 281 283 280 nan 272 nan nan nan nan nan nan nan nan nan
nan nan nan nan nan nan nan nan nan nan nan nan 201 nan nan 238 nan nan nan nan nan nan nan nan 262 242 nan 266 nan 280 262 253 250 247 244 240 239 245 252 262 266 269 271 269 270 270 274 277 277 278 275 274 279 282 281 278 277 278 279 284 284 288 293 288 272 271 276 278 277 280 279 275 273 272 nan nan 256 nan nan nan nan nan nan nan nan nan
nan nan nan nan nan nan nan nan nan nan nan nan nan nan nan nan nan nan nan nan nan nan nan nan nan 251 nan 227 274 262 260 254 248 244 244 242 243 245 248 253 262 264 265 268 268 270 274 277 279 277 276 274 278 280 279 277 275 273 274 280 280 281 287 283 270 272 285 283 277 277 271 264 263 259 249 nan 257 267 277 278 nan nan nan nan nan nan
nan nan nan nan nan nan nan nan nan nan nan nan nan nan nan nan nan nan 226 nan nan nan nan nan 240 253 235 217 247 263 262 258 256 251 247 244 247 247 247 249 253 258 261 267 271 272 272 270 270 273 276 281 281 278 280 280 280 279 278 280 282 281 283 279 271 274 280 278 270 265 256 251 253 251 243 nan nan nan 270 267 268 269 nan nan nan nan
nan nan nan nan nan nan nan nan nan nan nan nan nan nan nan nan nan nan nan nan 211 nan 220 nan 230 244 235 223 246 264 259 265 255 252 248 248 249 250 250 251 251 255 257 261 265 269 273 273 274 275 276 278 279 280 280 280 284 286 283 284 282 280 281 280 275 272 272 262 253 251 249 251 248 245 248 260 nan 267 265 nan nan 268 272 nan nan nan
217 nan nan nan nan nan nan nan nan nan nan nan nan nan nan nan nan nan nan nan nan nan nan nan nan 245 233 224 237 251 258 258 255 251 248 247 250 251 251 252 253 255 258 260 262 264 265 269 270 271 273 275 277 277 279 280 281 282 283 284 284 285 287 282 270 262 256 247 246 248 247 248 248 251 256 261 262 265 268 nan nan nan 273 274 nan nan
nan nan nan nan nan nan nan nan nan nan nan nan nan nan nan nan 241 nan nan nan nan nan nan nan nan 247 246 235 239 244 252 250 255 254 252 250 250 252 254 254 255 256 257 258 260 262 264 265 264 266 269 270 271 272 274 275 280 286 284 282 285 288 292 286 270 255 249 247 249 247 244 245 248 252 257 261 263 269 272 nan 272 276 276 278 276 nan
nan nan nan nan nan nan nan nan nan nan nan nan nan nan nan nan nan 217 nan 238 nan 224 220 nan nan 247 245 241 246 250 260 263 258 253 251 253 252 253 254 254 255 255 256 258 259 261 261 263 263 264 266 270 272 272 272 274 276 278 279 280 282 284 288 287 277 268 260 256 252 248 246 250 252 259 262 266 266 273 276 nan 274 273 nan 276 nan 278
nan nan nan nan nan nan nan nan nan nan nan nan nan nan nan nan nan nan nan 232 nan nan nan 230 241 246 249 248 249 258 255 254 254 254 251 250 251 250 250 252 253 252 253 255 256 259 260 260 262 265 268 269 269 269 268 267 267 271 273 274 277 283 284 283 280 272 264 255 249 246 248 253 255 262 270 270 269 275 275 276 nan nan nan 277 279 nan
nan nan nan nan nan nan nan nan nan nan nan nan nan nan nan nan nan nan nan nan nan nan nan nan 262 260 259 258 254 251 250 251 249 249 251 251 249 248 249 251 252 252 252 254 254 255 255 259 264 266 266 266 267 266 267 267 268 267 268 272 274 277 278 275 270 265 257 252 251 248 247 252 255 256 262 265 264 264 267 269 271 nan nan nan 278 280
nan nan nan nan nan nan nan nan nan nan nan nan nan nan nan nan nan 228 nan nan 223 nan nan 233 266 262 259 259 256 253 248 241 240 244 247 248 249 251 251 252 254 254 253 252 253 257 257 254 253 256 259 261 262 263 265 266 268 270 270 268 265 265 265 261 261 260 257 254 251 248 247 249 251 255 255 259 262 263 265 265 264 265 268 272 278 279
255 nan nan nan nan nan nan nan nan nan nan nan nan nan 231 nan nan 241 236 233 232 nan nan 251 250 256 256 253 247 239 241 242 240 245 247 249 253 255 255 254 253 254 253 252 250 253 255 254 252 253 255 258 262 265 266 265 265 267 267 266 265 265 260 256 259 259 260 258 257 257 254 252 250 249 261 261 262 266 265 261 261 262 263 266 263 268
nan 252 264 nan nan nan nan nan nan nan nan nan nan nan nan 233 236 237 238 238 241 246 254 258 262 257 254 252 nan 235 234 235 237 243 249 254 254 255 257 256 256 252 nan nan 253 253 252 250 249 252 258 262 263 262 261 262 265 267 268 268 268 266 263 261 259 261 260 259 258 257 256 256 259 262 264 266 262 258 253 257 260 262 265 266 268 264
251 nan nan nan nan nan nan nan nan nan nan nan nan nan nan nan nan nan 238 240 248 252 254 256 258 nan nan nan nan nan 238 240 244 245 247 250 255 257 259 261 259 257 nan nan nan nan nan nan nan nan nan nan nan 253 256 258 262 264 264 263 262 260 261 263 262 259 258 257 256 258 259 257 257 257 261 262 266 269 270 268 268 268 271 273 269 266
263 nan nan nan nan nan nan nan nan nan nan nan nan nan nan nan nan nan nan 230 241 253 255 257 nan nan nan nan nan nan nan 242 240 243 251 252 254 257 258 259 261 nan nan nan nan nan nan nan nan nan nan nan nan nan nan nan nan nan 254 256 258 261 264 263 262 262 261 260 260 259 259 260 260 261 260 260 260 261 265 269 273 272 272 271 272 274
263 nan nan nan nan nan nan nan nan nan nan nan nan nan nan nan nan nan nan nan 232 235 254 nan nan nan nan nan nan nan nan nan 246 nan nan nan nan nan nan nan nan nan nan nan nan nan nan nan nan nan nan nan nan nan nan nan nan nan nan nan nan nan nan 261 264 266 265 265 264 261 260 260 259 260 262 262 263 264 264 266 268 274 274 273 273 276
nan 256 nan 255 nan nan nan nan nan nan nan nan 237 nan nan nan nan nan nan nan nan nan nan nan nan nan nan nan nan nan nan nan nan nan nan nan nan nan nan nan nan nan nan nan nan nan nan nan nan nan nan nan nan nan nan nan nan nan nan nan nan nan nan nan nan nan nan nan 263 263 264 264 264 266 267 267 267 267 269 269 270 270 274 275 279 282
248 240 nan 249 nan nan nan nan nan nan nan nan nan nan nan nan nan nan nan nan nan nan nan nan nan nan nan nan nan nan nan 248 244 nan nan nan nan nan nan nan nan nan 243 243 242 nan nan nan nan nan nan nan nan nan nan nan nan nan nan nan nan nan nan nan nan nan nan nan nan nan nan nan nan nan 266 268 270 270 270 271 272 273 274 275 276 276
nan nan nan nan nan nan nan nan nan nan nan nan nan nan nan nan nan nan nan nan nan nan nan nan nan nan nan nan nan nan nan nan 248 244 244 243 244 247 nan nan nan nan nan nan nan nan nan nan nan nan nan nan nan nan nan nan nan nan nan nan nan nan nan nan nan nan nan nan nan nan nan nan nan nan nan nan nan 272 273 275 276 276 275 274 273 273
nan 253 nan nan nan nan nan nan nan nan nan nan nan nan nan nan nan nan nan nan nan nan nan nan nan nan nan nan nan nan nan nan nan nan nan nan nan nan nan nan nan nan nan nan nan nan nan nan nan nan nan nan nan nan nan nan nan nan nan nan nan nan nan nan nan nan nan nan nan nan nan nan nan nan nan nan nan nan nan nan 277 277 277 276 275 273
nan nan 250 nan nan nan 250 253 nan nan nan nan nan nan nan nan nan nan nan nan nan nan nan nan nan nan nan nan nan nan nan nan nan nan nan nan nan nan nan nan nan nan nan nan nan nan nan nan nan nan nan nan nan nan nan nan nan nan nan nan nan nan nan nan nan nan nan nan nan nan nan nan nan nan nan nan nan nan nan nan nan nan 275 275 275 275
nan nan nan nan nan nan nan nan nan 256 nan nan nan nan nan nan nan nan nan nan nan nan nan nan nan nan nan nan nan nan nan nan nan nan nan nan nan nan nan nan nan nan nan nan nan nan nan nan nan nan nan nan nan nan nan nan nan nan nan nan nan nan nan nan nan nan nan nan nan nan nan nan nan nan nan nan nan nan nan nan nan nan 275 274 274 273
nan nan nan nan nan nan nan nan nan nan nan nan nan nan nan nan nan nan nan nan nan nan nan nan nan nan nan nan nan nan nan nan nan nan nan nan nan nan nan nan nan nan nan nan nan nan nan nan nan nan nan nan nan nan nan nan nan nan nan nan nan nan nan nan nan nan nan nan nan nan nan nan nan nan nan nan nan nan nan nan nan nan nan nan nan 274
nan nan nan nan 245 nan nan nan nan nan nan nan nan nan nan nan nan nan nan nan nan nan nan nan nan nan nan nan nan nan nan nan nan nan nan nan nan nan nan nan nan nan nan nan nan nan nan nan nan nan nan nan nan nan nan nan nan nan nan nan nan nan nan nan nan nan nan nan nan nan nan nan nan nan nan nan nan nan nan nan nan nan nan nan nan nan
nan nan nan nan nan nan nan nan nan nan nan nan nan nan nan nan nan nan nan nan nan nan nan nan nan nan nan nan nan nan nan nan nan nan nan nan nan nan nan nan nan nan nan nan nan nan nan nan nan nan nan nan nan nan nan nan nan nan nan nan nan nan nan nan nan nan nan nan nan nan nan nan nan nan nan nan nan nan nan nan nan nan 276 nan nan nan
nan nan nan nan nan nan nan nan nan nan nan nan nan nan nan nan nan nan nan nan nan nan nan nan nan nan nan nan nan nan nan nan nan nan nan nan nan nan nan nan nan nan nan nan nan nan nan nan nan nan nan nan nan nan nan nan nan nan nan nan nan nan nan nan nan nan nan nan nan nan nan nan nan nan nan nan nan nan nan nan nan nan nan 275 276 nan
nan nan nan nan nan nan nan nan nan nan nan nan nan nan nan nan nan nan nan nan nan nan nan nan nan nan nan nan nan nan nan nan nan nan nan nan nan nan nan nan nan nan nan nan nan nan nan nan nan nan nan nan nan nan nan nan nan nan nan nan nan nan nan nan nan nan nan nan nan nan nan nan nan nan nan nan nan nan nan nan nan nan nan 277 277 276
nan nan nan nan nan nan nan nan nan nan nan nan nan nan nan nan nan nan nan nan nan nan nan nan nan nan nan nan nan nan nan nan nan nan nan nan nan nan nan nan nan nan nan nan nan nan nan nan nan nan nan nan nan nan nan nan nan nan nan nan nan nan nan nan nan nan nan nan nan nan nan nan nan nan nan nan nan nan nan nan nan nan nan nan 276 276
nan nan nan nan nan nan nan nan nan nan nan nan nan nan nan nan nan nan nan nan nan nan nan nan nan nan nan nan nan nan nan nan nan nan nan nan nan nan nan nan nan nan nan nan nan nan nan nan nan nan nan nan nan nan nan nan nan nan nan nan nan nan nan nan nan nan nan nan nan nan nan nan nan nan nan nan nan nan nan nan nan nan nan nan nan 277
nan nan nan nan nan nan nan nan nan nan nan nan nan nan nan nan nan nan nan nan nan nan nan nan nan nan nan nan nan nan nan nan nan nan nan nan nan nan nan nan nan nan nan nan nan nan nan nan nan nan nan nan nan nan nan nan nan nan nan nan nan nan nan nan nan nan nan nan nan nan nan nan nan nan nan nan nan nan nan nan nan nan nan nan nan nan
nan nan nan nan nan nan nan nan nan nan nan nan nan nan nan nan nan nan nan nan nan nan nan nan nan nan nan nan nan nan nan nan nan nan nan nan nan nan nan nan nan nan nan nan nan nan nan nan nan nan nan nan nan nan nan nan nan nan nan nan nan nan nan nan nan nan nan nan nan nan nan nan nan nan nan nan nan nan nan nan nan nan nan nan nan nan
nan nan nan nan nan nan nan nan nan nan nan nan nan nan nan nan nan nan nan nan nan nan nan nan nan nan nan nan nan nan nan nan nan nan nan nan nan nan nan nan nan nan nan nan nan nan nan nan nan nan nan nan nan nan nan nan nan nan nan nan nan nan nan nan nan nan nan nan nan nan nan nan nan nan nan nan nan nan nan nan nan nan nan nan nan nan
nan nan nan nan nan nan nan nan nan nan nan nan nan nan nan nan nan nan nan nan nan nan nan nan nan nan nan nan nan nan nan nan nan nan nan nan nan nan nan nan nan nan nan nan nan nan nan nan nan nan nan nan nan nan nan nan nan nan nan nan nan nan nan nan nan nan nan nan nan nan nan nan nan nan nan nan nan nan nan nan nan nan nan nan nan nan
nan nan nan nan nan nan nan nan nan nan nan nan nan nan nan nan nan nan nan nan nan nan nan nan nan nan nan nan nan nan nan nan nan nan nan nan nan nan nan nan nan nan nan nan nan nan nan nan nan nan nan nan nan nan nan nan nan nan nan nan nan nan nan nan nan nan nan nan nan nan nan nan nan nan nan nan nan nan nan nan nan nan nan nan nan nan